Theta_e
304 304 303 302 302 301 299 296 294 295 296 296 295 293 293 293 293 292 292 292 292 292 292 292 293 294 296 297 296 296 297 296 296 297 298 299 300 301 300 302 303 304 305
304 304 303 302 302 300 299 297 295 295 295 293 292 292 292 292 292 292 292 291 291 291 291 292 292 293 294 295 296 296 296 296 297 297 297 297 299 300 301 301 302 303 305
304 303 303 302 301 300 299 297 295 295 293 293 293 294 293 293 293 292 292 291 291 291 291 291 292 293 294 294 294 297 297 296 296 297 297 297 299 297 300 301 302 302 305
303 303 302 302 301 300 299 297 294 293 294 295 295 295 295 295 295 295 294 293 292 291 291 291 292 293 293 294 293 295 296 295 296 296 296 297 297 298 299 299 302 302 304
303 302 302 301 301 300 299 298 296 295 295 296 296 296 295 295 295 295 294 294 294 292 291 291 292 292 292 293 293 293 294 295 295 295 296 297 298 298 298 298 299 299 304
302 302 301 301 300 299 298 297 297 296 296 297 297 296 296 296 295 295 294 294 294 293 292 291 291 291 291 291 292 293 293 294 294 294 296 297 297 298 298 298 298 298 301
302 301 301 300 299 298 298 297 297 297 297 297 297 297 297 296 296 295 295 294 294 293 292 291 291 291 291 291 291 292 294 295 294 294 295 296 296 297 298 298 298 298 301
302 301 300 300 299 298 298 297 298 298 298 298 297 297 297 297 296 296 295 294 294 293 293 291 291 291 291 290 291 292 293 294 294 294 295 296 297 298 298 299 298 300 302
301 300 300 300 299 298 298 298 298 299 298 298 298 298 298 298 297 296 296 295 294 293 293 291 291 291 291 290 290 292 293 294 294 295 296 298 298 299 300 299 299 299 301
301 301 301 301 301 299 299 299 299 299 299 299 298 298 299 298 298 297 296 295 294 294 293 291 291 291 291 290 290 291 291 292 293 295 296 298 298 299 300 300 299 298 302
301 301 302 301 301 301 301 301 301 301 300 300 299 300 300 299 298 297 296 295 294 293 292 291 291 291 291 290 290 291 291 291 293 295 296 297 298 298 299 301 302 301 303
302 303 303 302 302 302 301 302 301 301 301 301 300 300 301 300 298 297 296 295 294 293 292 291 291 291 291 290 290 291 291 292 294 294 295 296 297 298 299 300 305 307 308
303 303 303 303 303 303 303 304 303 302 301 300 300 300 300 299 298 297 297 294 294 292 292 291 291 290 290 290 290 290 291 291 292 293 294 295 296 298 299 300 306 309 310
303 303 304 304 304 304 304 304 304 304 301 300 300 300 299 299 298 297 295 294 293 292 291 291 290 290 290 289 290 290 290 290 290 291 293 294 296 297 298 299 303 307 309
304 304 304 304 304 305 304 304 304 304 302 300 299 299 298 298 296 295 295 293 292 291 291 290 290 290 289 289 290 290 289 290 290 290 292 293 295 296 298 299 300 304 307
304 304 305 304 304 305 305 305 305 304 303 301 300 299 295 296 295 295 293 292 291 291 290 290 290 289 289 289 290 290 289 289 289 289 290 293 293 295 297 299 299 302 303
306 306 306 306 305 305 305 304 303 302 301 300 298 297 295 295 294 293 292 291 291 290 290 290 289 289 288 288 289 289 289 288 289 289 290 291 293 294 296 297 299 300 301
306 305 304 304 303 305 303 303 301 300 300 300 297 295 295 294 293 292 291 290 290 289 289 289 289 288 288 288 288 289 289 288 288 288 289 290 292 293 294 296 297 299 299
303 303 304 305 305 304 301 300 299 298 296 296 295 295 294 293 292 291 290 289 289 289 289 288 287 287 287 287 288 288 289 288 287 287 288 289 290 292 293 294 296 298 299
301 302 303 304 302 300 299 298 297 296 296 295 295 293 292 291 291 290 289 288 288 288 287 287 286 286 287 287 287 287 288 288 286 286 288 289 289 290 292 293 294 296 298
300 302 303 302 301 299 297 296 295 295 294 293 292 291 291 290 290 289 288 288 287 287 286 286 285 286 286 287 286 286 287 287 285 285 287 289 289 290 291 291 293 295 296
298 300 302 300 299 298 296 295 294 292 291 291 291 290 290 290 289 288 288 287 287 287 285 285 284 285 286 286 285 285 285 284 285 285 286 288 289 289 290 291 292 293 295
299 300 299 298 297 295 296 295 295 293 292 292 291 291 290 289 289 289 289 288 288 287 285 283 283 284 285 284 284 284 283 284 284 285 287 288 288 289 289 290 291 293 294
299 299 297 296 296 296 296 296 295 294 293 293 293 292 290 289 289 289 288 288 287 286 284 283 283 283 284 284 284 284 284 284 284 287 288 288 288 288 289 289 290 292 293
299 298 298 297 297 297 296 296 296 295 294 294 293 293 292 291 290 289 288 288 287 286 284 283 283 283 284 284 284 284 284 285 286 288 288 288 288 288 289 289 290 291 292
299 300 299 297 297 297 296 296 296 295 294 293 293 292 292 291 290 289 289 288 287 286 284 283 283 283 284 285 284 285 285 287 288 288 288 288 288 288 288 289 289 289 291
Wind_Speed
3 2 4 6 5 7 8 9 6 5 5 7 9 11 12 12 13 14 16 17 18 18 19 20 21 21 22 21 20 20 22 24 30 37 40 44 44 46 46 44 45 44 41
2 1 2 2 3 5 7 8 5 5 6 7 9 11 13 14 16 17 18 19 21 21 22 22 23 23 24 23 22 23 24 27 32 37 40 44 45 46 47 46 47 47 45
3 2 1 1 2 5 7 6 4 5 7 8 9 12 14 16 18 19 21 22 22 23 23 25 26 27 27 27 26 26 25 30 32 38 41 39 42 46 47 47 50 49 46
5 5 2 1 2 4 4 5 6 5 6 7 10 12 14 16 18 20 22 24 24 24 24 25 26 27 28 29 27 27 30 33 34 37 39 39 37 39 40 47 55 50 48
5 6 2 2 2 3 3 3 2 4 3 5 9 11 13 15 18 20 23 24 26 26 26 26 27 28 27 28 30 31 30 33 37 38 42 41 42 38 41 42 46 51 49
5 7 5 4 4 4 3 1 1 1 2 3 6 9 12 14 17 19 22 24 26 28 30 29 29 30 32 33 33 32 28 32 36 36 40 41 47 44 49 47 46 46 56
5 8 5 5 4 5 5 3 3 3 4 4 6 9 11 13 16 19 21 24 26 28 30 31 32 31 33 37 39 38 36 32 30 31 38 40 47 46 48 48 49 49 52
7 7 5 5 4 3 4 4 4 4 6 6 7 9 12 13 16 19 21 23 25 27 30 30 31 33 35 39 42 43 40 37 33 33 34 41 42 43 42 42 47 48 49
8 6 6 2 2 4 4 5 6 8 8 9 9 10 14 16 17 19 21 23 26 28 30 29 30 32 34 38 42 43 42 40 36 35 36 39 39 38 36 38 41 40 44
7 7 6 7 5 5 6 7 10 13 12 11 12 14 17 19 18 20 20 23 27 30 32 30 29 29 33 37 39 40 40 39 38 39 38 39 37 40 34 34 36 39 39
1 0 4 5 7 9 11 13 15 15 17 18 17 17 19 20 19 20 21 23 27 31 32 32 31 30 32 36 36 36 33 33 35 34 35 39 40 44 38 34 32 31 31
4 6 8 8 10 10 13 16 18 20 22 22 23 24 21 19 20 21 23 22 26 30 31 32 32 30 32 35 36 36 31 28 28 30 34 38 43 47 41 33 27 26 27
10 13 12 12 13 15 17 19 21 24 25 23 23 24 21 17 20 23 23 22 26 28 29 30 31 28 31 34 35 35 32 27 28 32 34 37 40 44 38 34 20 17 14
17 17 18 20 21 22 24 24 25 26 22 21 22 20 19 22 23 20 19 25 26 27 29 28 30 26 30 30 33 35 34 29 28 30 32 34 38 42 39 39 31 13 16
22 24 25 24 23 25 29 31 32 30 30 25 13 16 19 21 18 18 24 24 25 28 28 29 29 29 32 29 31 34 36 32 31 30 31 34 36 40 42 36 36 24 6
25 25 27 28 27 32 33 27 27 26 30 31 18 15 12 18 19 22 22 22 25 26 27 27 26 29 31 29 30 32 35 34 32 31 30 30 34 36 39 38 33 32 30
25 27 28 27 27 25 18 17 17 16 20 14 8 12 14 18 21 20 21 24 24 24 25 24 26 29 29 29 28 29 32 34 31 32 31 28 29 31 34 35 33 30 25
22 23 22 20 15 13 10 12 14 13 11 10 9 9 16 19 19 20 23 24 22 21 22 23 27 28 27 27 28 29 29 31 31 32 32 26 24 26 28 30 31 27 27
17 18 18 14 9 7 6 7 9 10 8 7 10 15 17 17 18 20 22 21 21 21 23 26 27 26 26 26 27 26 26 29 30 31 32 28 23 22 23 23 25 24 21
17 15 12 7 5 2 6 5 7 9 10 14 18 18 15 16 19 21 21 19 20 22 25 26 26 25 24 25 26 25 24 28 30 28 31 27 23 18 17 18 19 20 19
12 10 3 3 4 3 3 7 11 12 15 16 14 13 15 16 20 21 19 18 21 24 26 27 26 24 24 25 25 25 23 25 29 26 29 27 22 18 14 14 14 14 14
11 7 4 3 3 3 5 9 13 13 12 11 13 14 14 17 18 18 19 20 23 25 26 27 26 23 23 25 26 25 26 26 25 27 28 26 22 17 13 10 11 11 11
6 3 2 2 3 4 7 9 14 14 13 14 16 17 16 16 18 19 21 23 25 28 28 26 25 24 24 24 23 23 25 25 23 26 27 26 22 17 13 9 6 6 7
2 2 2 3 5 7 9 12 15 16 15 16 18 18 18 18 19 20 22 24 27 29 28 26 24 24 25 25 23 23 23 23 25 26 27 25 22 17 13 10 7 5 4
5 6 7 8 9 10 12 16 17 17 17 18 20 21 20 21 21 22 24 27 30 29 28 25 23 24 25 24 24 24 24 23 24 27 26 23 19 15 12 8 7 7 5
11 13 12 11 11 13 14 16 19 17 19 21 24 25 24 23 24 25 27 31 32 30 28 26 24 24 24 24 24 24 23 25 27 27 23 20 17 13 11 8 6 9 7
Wind_Direction
83 124 58 54 46 40 23 19 18 48 40 22 12 13 18 22 18 12 6 2 0 357 352 351 348 342 336 329 331 325 323 321 305 310 314 320 322 321 318 313 311 307 305
88 124 54 42 32 36 18 23 22 48 47 30 20 21 23 24 19 13 9 3 358 356 351 349 348 342 337 331 325 324 319 319 315 305 310 315 319 321 317 315 314 311 308
201 248 275 31 341 20 18 23 49 67 59 40 36 34 33 30 23 17 13 6 0 356 351 348 348 345 340 333 330 320 312 310 310 309 306 307 309 320 321 314 313 311 308
202 232 232 271 357 354 15 32 65 89 59 36 31 31 29 28 23 18 15 8 3 358 351 346 345 345 343 340 327 314 309 308 309 307 306 305 307 316 311 311 313 311 306
212 231 249 294 294 301 341 24 58 81 56 25 23 21 19 18 16 11 12 6 2 357 353 349 344 344 341 335 330 320 314 306 306 309 308 309 309 309 309 308 303 311 299
220 258 269 273 276 272 260 269 214 341 336 352 4 15 12 7 2 1 0 1 0 354 350 347 342 338 338 336 328 325 317 306 306 308 307 305 308 308 313 310 303 300 299
231 255 270 269 260 275 226 252 229 271 307 329 339 350 1 355 349 346 346 349 351 351 348 343 339 337 335 334 333 329 324 317 306 304 304 307 310 313 311 306 301 295 290
241 252 243 252 260 278 257 247 252 300 308 315 328 330 331 347 341 340 330 333 339 343 342 339 335 334 336 337 333 330 325 320 316 311 305 308 309 310 304 302 301 292 290
247 224 205 225 278 272 261 262 277 299 314 307 311 322 322 327 327 331 326 323 331 335 338 337 333 330 333 337 334 330 324 320 317 312 312 312 312 315 308 307 304 295 287
227 234 245 247 264 276 269 283 292 291 294 299 304 311 312 314 315 320 322 321 325 329 334 334 332 327 331 336 336 330 322 320 319 319 318 318 323 326 318 307 304 294 287
207 288 289 293 291 277 279 283 291 297 297 294 295 306 313 306 312 314 319 317 321 323 326 329 333 329 331 336 336 332 325 319 318 318 322 329 333 334 327 315 300 293 280
224 269 288 310 310 307 295 296 292 295 298 298 292 296 307 305 309 312 311 311 319 319 323 323 330 328 331 333 337 339 331 326 325 332 334 338 339 339 333 330 308 296 266
278 287 297 298 297 296 298 304 299 296 296 297 293 297 303 299 312 308 308 311 320 319 319 320 328 326 329 332 339 343 345 338 339 339 339 340 341 344 341 351 336 288 245
281 290 294 293 293 291 289 289 298 293 291 293 298 303 303 308 315 311 308 317 321 318 317 319 328 328 332 331 338 348 352 348 342 342 343 342 342 350 355 5 13 351 263
288 290 289 291 297 297 294 289 289 286 279 273 272 287 304 310 315 315 321 322 320 319 318 321 329 334 338 337 339 346 352 351 349 347 348 347 348 353 2 10 25 40 115
294 289 290 291 291 298 298 297 299 298 290 269 268 297 291 305 312 319 319 320 319 316 317 325 330 336 339 339 336 341 348 352 350 349 349 349 352 356 3 14 25 37 41
296 290 290 286 289 295 301 303 304 303 297 292 279 279 297 307 314 312 317 321 321 319 321 326 330 336 336 337 336 336 341 349 350 351 351 349 351 357 5 13 25 34 36
299 295 295 297 300 290 297 300 318 313 307 315 320 299 304 309 306 313 318 322 322 323 325 327 330 332 332 332 334 333 335 344 348 350 354 353 353 358 2 10 19 28 38
304 305 300 291 284 291 294 310 313 319 330 318 309 316 312 304 309 315 323 326 324 326 325 326 328 330 330 329 332 332 332 338 345 347 354 354 352 355 4 7 15 22 38
311 307 300 281 257 283 341 322 325 325 315 315 318 319 318 316 319 328 331 328 326 326 326 327 328 328 329 328 330 331 331 331 340 343 349 351 352 349 358 5 12 14 23
321 324 286 249 239 302 330 332 335 322 315 316 321 322 318 321 327 332 332 332 329 329 327 327 327 325 324 325 326 327 328 326 333 338 344 348 347 348 347 357 3 14 17
316 302 259 263 264 300 318 338 341 334 334 335 338 332 320 321 327 331 333 332 332 331 329 325 324 322 321 323 323 322 324 326 327 333 339 341 342 340 339 337 357 6 15
315 281 260 272 280 314 325 322 340 339 336 336 337 342 335 326 326 326 326 326 327 329 329 327 323 322 322 323 322 321 321 324 325 330 331 334 332 328 325 320 324 353 8
295 195 284 293 303 307 313 325 332 332 327 328 332 332 334 331 328 328 328 326 325 326 327 326 322 321 322 323 322 321 321 321 323 326 327 327 325 319 312 303 272 287 333
268 256 276 297 308 304 302 318 321 321 321 318 321 325 324 325 326 326 330 332 329 327 326 325 323 321 322 322 321 320 319 318 319 322 322 321 319 314 307 293 263 240 259
283 271 265 276 291 303 299 301 312 312 316 319 318 318 313 317 322 322 324 328 328 326 325 324 323 321 321 320 320 319 318 318 319 319 317 315 314 310 304 283 257 226 222